timestamp,surface_pressure_avg,surface_temp_avg,battery_voltage,lat,long
2018-05-21 00:00:00+00:00,238.1648,6.8,13.05,47.84626,-54.09684
2018-05-21 00:10:00+00:00,246.4114,6.8,12.97,47.84626,-54.09684
2018-05-21 00:20:00+00:00,251.9314,6.8,13.05,47.84626,-54.09684
2018-05-21 00:30:00+00:00,255.9414,6.8,13.05,47.84626,-54.09684
2018-05-21 00:40:00+00:00,264.6814,6.8,13.05,47.84626,-54.09684
2018-05-21 00:50:00+00:00,270.2564,6.8,13.05,47.84626,-54.09684
2018-05-21 01:00:00+00:00,272.1464,6.82,12.97,47.84626,-54.09684
2018-05-21 01:10:00+00:00,275.4897,6.8,12.97,47.84626,-54.09684
2018-05-21 01:20:00+00:00,280.9863,6.8,12.97,47.84626,-54.09684
2018-05-21 01:30:00+00:00,285.0881,6.8,12.97,47.84626,-54.09684
2018-05-21 01:40:00+00:00,295.5681,6.8,13.05,47.84626,-54.09684
2018-05-21 01:50:00+00:00,304.0464,6.8,13.05,47.84626,-54.09684
2018-05-21 02:00:00+00:00,313.7513,6.79,12.97,47.84626,-54.09684
2018-05-21 02:10:00+00:00,321.3397,6.7,12.89,47.84626,-54.09684
2018-05-21 02:20:00+00:00,327.6347,6.6,12.97,47.84626,-54.09684
2018-05-21 02:30:00+00:00,329.973,6.6,12.97,47.84626,-54.09684
2018-05-21 02:40:00+00:00,334.3229,6.6,12.97,47.84626,-54.09684
2018-05-21 02:50:00+00:00,339.8313,6.59,12.97,47.84626,-54.09684
2018-05-21 03:00:00+00:00,348.0996,6.53,12.97,47.84626,-54.09684
2018-05-21 03:10:00+00:00,348.293,6.55,12.89,47.84626,-54.09684
2018-05-21 03:20:00+00:00,343.758,6.56,12.97,47.84626,-54.09684
2018-05-21 03:30:00+00:00,344.4495,6.56,12.97,47.84626,-54.09684
2018-05-21 03:40:00+00:00,349.4464,6.54,12.97,47.84626,-54.09684
2018-05-21 03:50:00+00:00,356.6763,6.55,12.97,47.84626,-54.09684
2018-05-21 04:00:00+00:00,356.7646,6.53,12.89,47.84626,-54.09684
2018-05-21 04:10:00+00:00,355.0246,6.55,12.89,47.84626,-54.09684
2018-05-21 04:20:00+00:00,356.1762,6.58,12.97,47.84626,-54.09684
2018-05-21 04:30:00+00:00,359.3962,6.59,12.97,47.84626,-54.09684
2018-05-21 04:40:00+00:00,359.043,6.59,12.97,47.84626,-54.09684
2018-05-21 04:50:00+00:00,355.7413,6.6,12.97,47.84626,-54.09684
2018-05-21 05:00:00+00:00,357.4462,6.57,12.89,47.84626,-54.09684
2018-05-21 05:10:00+00:00,362.2795,6.5,12.81,47.84626,-54.09684
2018-05-21 05:20:00+00:00,359.7496,6.48,12.89,47.84626,-54.09684
2018-05-21 05:30:00+00:00,356.7078,6.4,12.89,47.84626,-54.09684
2018-05-21 05:40:00+00:00,355.8096,6.4,12.97,47.84626,-54.09684
2018-05-21 05:50:00+00:00,353.1797,6.4,12.97,47.84626,-54.09684
2018-05-21 06:00:00+00:00,350.8263,6.4,12.89,47.84626,-54.09684
2018-05-21 06:10:00+00:00,342.4563,6.4,12.81,47.84626,-54.09684
2018-05-21 06:20:00+00:00,330.1146,6.4,12.89,47.84626,-54.09684
2018-05-21 06:30:00+00:00,319.6697,6.4,12.89,47.84626,-54.09684
2018-05-21 06:40:00+00:00,309.1413,6.43,12.97,47.84626,-54.09684
2018-05-21 06:50:00+00:00,302.3514,6.42,12.97,47.84626,-54.09684
2018-05-21 07:00:00+00:00,289.6247,6.46,12.89,47.84626,-54.09684
2018-05-21 07:10:00+00:00,276.5264,6.5,12.81,47.84626,-54.09684
2018-05-21 07:20:00+00:00,259.828,6.5,12.89,47.84626,-54.09684
2018-05-21 07:30:00+00:00,257.0731,6.5,12.89,47.84626,-54.09684
2018-05-21 07:40:00+00:00,249.6131,6.5,12.97,47.84626,-54.09684
2018-05-21 07:50:00+00:00,237.3031,6.5,12.97,47.84626,-54.09684
2018-05-21 08:00:00+00:00,227.5264,6.5,12.89,47.84626,-54.09684
2018-05-21 08:10:00+00:00,231.6497,6.5,12.81,47.84626,-54.09684
2018-05-21 08:20:00+00:00,225.3781,6.52,12.89,47.84626,-54.09684
2018-05-21 08:30:00+00:00,210.5414,6.58,12.97,47.84626,-54.09684
2018-05-21 08:40:00+00:00,205.0298,6.6,12.97,47.84626,-54.09684
2018-05-21 08:50:00+00:00,208.2031,6.6,13.05,47.84626,-54.09684
2018-05-21 09:00:00+00:00,205.2448,6.6,13.05,47.84626,-54.09684
2018-05-21 09:10:00+00:00,204.8548,6.6,12.97,47.84626,-54.09684
2018-05-21 09:20:00+00:00,215.2747,6.59,13.21,47.84626,-54.09684
2018-05-21 09:30:00+00:00,221.1281,6.54,13.29,47.84626,-54.09684
2018-05-21 09:40:00+00:00,215.2481,6.6,13.44,47.84626,-54.09684
2018-05-21 09:50:00+00:00,215.1248,6.6,13.6,47.84626,-54.09684
2018-05-21 10:00:00+00:00,224.0931,6.6,13.68,47.84626,-54.09684
2018-05-21 10:10:00+00:00,229.8498,6.6,13.68,47.84626,-54.09684
2018-05-21 10:20:00+00:00,227.8997,6.6,13.84,47.84626,-54.09684
2018-05-21 10:30:00+00:00,228.0748,6.6,14.0,47.84626,-54.09684
2018-05-21 10:40:00+00:00,235.4147,6.6,14.0,47.84626,-54.09684
2018-05-21 10:50:00+00:00,239.2398,6.6,14.32,47.84626,-54.09684
2018-05-21 11:00:00+00:00,238.1214,6.61,14.16,47.84626,-54.09684
2018-05-21 11:10:00+00:00,233.6615,6.65,14.4,47.84626,-54.09684
2018-05-21 11:20:00+00:00,232.9748,6.68,14.32,47.84626,-54.09684
2018-05-21 11:30:00+00:00,230.4848,6.68,16.31,47.84626,-54.09684
2018-05-21 11:40:00+00:00,234.2714,6.69,14.64,47.84626,-54.09684
2018-05-21 11:50:00+00:00,241.8531,6.66,15.6,47.84626,-54.09684
2018-05-21 12:00:00+00:00,246.2747,6.69,14.72,47.84626,-54.09684
2018-05-21 12:10:00+00:00,241.6097,6.7,14.64,47.84626,-54.09684
2018-05-21 12:20:00+00:00,239.5581,6.7,14.72,47.84626,-54.09684
2018-05-21 12:30:00+00:00,244.5881,6.75,14.8,47.84626,-54.09684
2018-05-21 12:40:00+00:00,249.4614,6.79,15.04,47.84626,-54.09684
2018-05-21 12:50:00+00:00,244.5148,6.7,15.11,47.84626,-54.09684
2018-05-21 13:00:00+00:00,247.4514,6.71,14.64,47.84626,-54.09684
2018-05-21 13:10:00+00:00,261.5565,6.69,14.56,47.84626,-54.09684
2018-05-21 13:20:00+00:00,271.5398,6.6,14.96,47.84626,-54.09684
2018-05-21 13:30:00+00:00,271.0464,6.7,14.64,47.84626,-54.09684
2018-05-21 13:40:00+00:00,280.5098,6.7,14.88,47.84626,-54.09684
2018-05-21 13:50:00+00:00,292.5381,6.66,14.88,47.84626,-54.09684
2018-05-21 14:00:00+00:00,298.2164,6.69,14.48,47.84626,-54.09684
2018-05-21 14:10:00+00:00,297.1964,6.69,14.64,47.84626,-54.09684
2018-05-21 14:20:00+00:00,305.1014,6.67,14.72,47.84626,-54.09684
2018-05-21 14:30:00+00:00,311.9246,6.64,14.72,47.84626,-54.09684
2018-05-21 14:40:00+00:00,319.6246,6.62,14.64,47.84626,-54.09684
2018-05-21 14:50:00+00:00,320.5397,6.6,14.64,47.84626,-54.09684
2018-05-21 15:00:00+00:00,323.6796,6.6,14.56,47.84626,-54.09684
2018-05-21 15:10:00+00:00,330.7047,6.6,14.48,47.84626,-54.09684
2018-05-21 15:20:00+00:00,337.3329,6.62,14.64,47.84626,-54.09684
2018-05-21 15:30:00+00:00,334.4797,6.65,14.56,47.84626,-54.09684
2018-05-21 15:40:00+00:00,336.6496,6.6,14.64,47.84626,-54.09684
2018-05-21 15:50:00+00:00,342.2163,6.6,14.56,47.84626,-54.09684
2018-05-21 16:00:00+00:00,348.9913,6.6,14.48,47.84626,-54.09684
2018-05-21 16:10:00+00:00,345.1863,6.6,14.4,47.84626,-54.09684
2018-05-21 16:20:00+00:00,345.103,6.6,14.48,47.84626,-54.09684
2018-05-21 16:30:00+00:00,357.7013,6.6,14.48,47.84626,-54.09684
2018-05-21 16:40:00+00:00,362.1514,6.66,14.48,47.84626,-54.09684
2018-05-21 16:50:00+00:00,357.0745,6.69,14.48,47.84626,-54.09684
2018-05-21 17:00:00+00:00,356.8496,6.6,14.32,47.84626,-54.09684
2018-05-21 17:10:00+00:00,362.3213,6.57,14.24,47.84626,-54.09684
2018-05-21 17:20:00+00:00,359.6563,6.6,14.32,47.84626,-54.09684
2018-05-21 17:30:00+00:00,353.4729,6.63,14.24,47.84626,-54.09684
2018-05-21 17:40:00+00:00,355.4163,6.6,14.32,47.84626,-54.09684
2018-05-21 17:50:00+00:00,353.5213,5.97,14.16,47.84626,-54.09684
2018-05-21 18:00:00+00:00,343.5496,6.22,14.16,47.84626,-54.09684
2018-05-21 18:10:00+00:00,339.258,6.5,14.08,47.84626,-54.09684
2018-05-21 18:20:00+00:00,335.313,6.5,14.16,47.84626,-54.09684
2018-05-21 18:30:00+00:00,330.0063,6.29,14.08,47.84626,-54.09684
2018-05-21 18:40:00+00:00,322.9563,6.45,14.16,47.84626,-54.09684
2018-05-21 18:50:00+00:00,315.053,6.58,14.16,47.84626,-54.09684
2018-05-21 19:00:00+00:00,308.8064,6.6,14.08,47.84626,-54.09684
2018-05-21 19:10:00+00:00,300.4447,6.6,14.0,47.84626,-54.09684
2018-05-21 19:20:00+00:00,295.9264,6.67,14.08,47.84626,-54.09684
2018-05-21 19:30:00+00:00,291.5914,6.7,14.08,47.84626,-54.09684
2018-05-21 19:40:00+00:00,282.9263,6.7,14.08,47.84626,-54.09684
2018-05-21 19:50:00+00:00,274.1147,6.7,14.08,47.84626,-54.09684
2018-05-21 20:00:00+00:00,267.8964,6.72,14.0,47.84626,-54.09684
2018-05-21 20:10:00+00:00,258.0097,6.74,13.92,47.84626,-54.09684
2018-05-21 20:20:00+00:00,246.6698,6.79,14.0,47.84626,-54.09684
2018-05-21 20:30:00+00:00,247.9981,6.79,14.0,47.84626,-54.09684
2018-05-21 20:40:00+00:00,244.5548,6.79,14.0,47.84626,-54.09684
2018-05-21 20:50:00+00:00,233.1231,6.8,14.0,47.84626,-54.09684
2018-05-21 21:00:00+00:00,232.0964,6.8,13.92,47.84626,-54.09684
2018-05-21 21:10:00+00:00,238.0064,6.8,13.84,47.84626,-54.09684
2018-05-21 21:20:00+00:00,233.2981,6.56,13.84,47.84626,-54.09684
2018-05-21 21:30:00+00:00,230.8148,6.1,13.76,47.84626,-54.09684
2018-05-21 21:40:00+00:00,234.3048,5.9,13.76,47.84626,-54.09684
2018-05-21 21:50:00+00:00,232.9781,5.82,13.68,47.84626,-54.09684
2018-05-21 22:00:00+00:00,232.1931,5.87,13.68,47.84626,-54.09684
2018-05-21 22:10:00+00:00,238.3281,5.89,13.53,47.84626,-54.09684
2018-05-21 22:20:00+00:00,242.4131,5.9,13.6,47.84626,-54.09684
2018-05-21 22:30:00+00:00,237.1281,5.99,13.53,47.84626,-54.09684
2018-05-21 22:40:00+00:00,236.4398,6.0,13.53,47.84626,-54.09684
2018-05-21 22:50:00+00:00,243.5447,5.9,13.44,47.84626,-54.09684
2018-05-21 23:00:00+00:00,247.7598,5.89,13.37,47.84626,-54.09684
2018-05-21 23:10:00+00:00,247.8947,5.9,13.29,47.84626,-54.09684
2018-05-21 23:20:00+00:00,246.9865,6.0,13.29,47.84626,-54.09684
2018-05-21 23:30:00+00:00,242.9481,6.1,13.29,47.84626,-54.09684
2018-05-21 23:40:00+00:00,239.4481,6.18,13.29,47.84626,-54.09684
2018-05-21 23:50:00+00:00,240.4948,6.1,13.21,47.84626,-54.09684
